OBJECT E, 63523

Orbit data source: Space-Track

You're viewing an uncataloged RSO

Recently launched and/or uncataloged RSOs may have evolving metadata. Metadata may include the following, but is not limited to: Owner, Manufacturer, Bus, Motor, and Mission.

OBJECT E, 63523 is a satellite owned by Tsinghua (CN) in LEO that was launched on Thu, 29 Apr 2021 UTC via a CHANG ZHENG 7 launch vehicle from the Wenchang Satellite Launch Center (WSC). Unknown objects in Earth's orbit typically refer to objects detected orbiting the Earth but have not yet been identified or cataloged. These objects could be anything from previously untracked satellites, spent rocket stages, debris from satellite collisions, or even natural meteoroids temporarily captured by Earth's gravity.

Loading next visibility...
Identifier
63523, 2021-035E
Orbit
LEO
Country
Flag of CNCN / PRC
Related business
Manufacturer
Tsinghua
Mission
Amateur Imaging
Bus & Motor
NAXING, Unknown motor
Mass
20 kg wet, 20 kg dry
Launch date (UTC)
2021-04-29 (5 years ago)
Launch vehicle
CHANG ZHENG 7
Launch site
Wenchang Satellite Launch Center (WSC)
Object type
Unknown
Shape & HBR
Box, 0.3 m
Radar Cross Section
0.240 m², Medium (>0.1 m² and < 1m²)

Expand to show TLE details & history
Last TLE update: 3 days ago

TLE from 3 days ago
0 OBJECT E
1 63523U 21035E   26260.96308488  .00072688  00000-0  56564-3 0  9992
2 63523  41.4537  74.3089 0001011 358.7337   1.3503 15.70761329 82963
Epoch: 2026-09-17T23:06Z
TLE epoch observation values (Epoch: 2026-09-17T23:06:50.533Z)
Latitude
0.00001°
Longitude
90.70557°
Altitude
355.635 km
Speed
7.698 km/s
True Right ascension
04h 57m 14s
True Declination
0° 00' 00"
Sunlit
Object was in daylight at epoch
Visualization orbit readout
Latitude
Unknown
Longitude
Unknown
Altitude
Unknown
Speed
Unknown
Apparent Right ascension
Unknown
Apparent Declination
Unknown
Sunlit
N/A
Visualization observer readout
Local Sidereal Time
20:50:36
Azimuth
Unknown
Elevation
Unknown
Doppler factor
Unknown
Orbital elements
Apogee altitude
359.646 km
Perigee altitude
358.284 km
Semi-major axis
6,737.102 km
Eccentricity
0.0001
Inclination
41.4537°
RAAN
74.3089°
Arg. of periapsis
358.7337°
True anomaly
1.35057°
Mean anomaly
1.3503°
Eccentric anomaly
1.35044°
Mean motion
3.92494 °/min
Orbital period
91.72 mins
BSTAR
0.00056564
Loading maneuver chart data...
Computing Atmospheric mass density...
Loading historical data...
Loading historical data...
Loading historical data...
Loading historical data...
Loading historical data...
Loading historical data...
Loading historical data...

Documentation

Showing up to 5 results
|